"Pseudo-MPEC" for C9J02Z2

Created 2023 Sep 21 1:22:13 UT using Find_Orb

Click here for an explanation of pseudo-MPECs

 
 Astrometry: 
     C9J02Z2*1C2023 09 19.30106501 14 29.670+02 56 25.98   ~9J87 20.30GVNEOCPG96
     C9J02Z2 1C2023 09 19.30625701 14 31.988+02 56 17.02   ~9J87 20.70GVNEOCPG96
     C9J02Z2 1C2023 09 19.31143101 14 34.343+02 56 07.98   ~9J87 21.17GVNEOCPG96
     C9J02Z2 1C2023 09 19.31659601 14 36.708+02 55 58.91   ~9J87 21.06GVNEOCPG96
     C9J02Z2 KC2023 09 19.41255101 15 19.922+02 53 09.60   ~9JAM 21.31GVNEOCPI52
     C9J02Z2 KC2023 09 19.41359601 15 20.437+02 53 07.87   ~9JAM 20.83GVNEOCPI52
     C9J02Z2 1C2023 09 20.12580 01 21 05.55 +02 31 48.7    ~9K8M 20.8 VXNEOCP033
     C9J02Z2 1C2023 09 20.12743 01 21 06.32 +02 31 45.8    ~9K8M 20.8 VXNEOCP033
     C9J02Z2 1C2023 09 20.12905 01 21 07.05 +02 31 43.1    ~9K8M 21.4 VXNEOCP033
     C9J02Z2 KC2023 09 20\]rtjaIAstrometry!,GI2pl?po=oJHfAubq'bwfD58r%TA`i*s9H21
     C9J02Z2 KC2023 09 20P80redacted;E0YpXy7-;b/BJ-bnB!clickA!hereUb(;+2hEb[/H21
     C9J02Z2 KC2023 09 20.27176401 22 22.184+02 28 04.58   ~9K77 21.53GVNEOCPI52
     C9J02Z2 KC2023 09 20.27280501 22 22.634+02 28 02.46   ~9K77 21.18GVNEOCPI52
     C9J02Z2 KC2023 09 20.27386501 22 23.110+02 28 00.88   ~9K77 20.98GVNEOCPI52
     C9J02Z2 KC2023 09 20akBWforIAI0\1?Y\A*vK$+h`!sLirh$[OI#aLx0\[uV:W\59fg=q858
     C9J02Z2 KC2023 09 20/#r]O/=tklDH-pG=S\9/PJE?f^+.!WqX)TaEd$@/Kexplanation858

Station data:
(033) Karl Schwarzschild Observatory, Tautenburg  (N50.980137 E11.711240)
   Germany.  Observer B. Stecklum. 1.34-m f/3 Schmidt + CCD.
(858) Tebbutt Observatory, Edgewood  (N35.093869 W106.220000)  US/New Mexico.
    Observer F. B. Zoltowski. 0.16-m refractor + CCD0.51-m Schmidt-Cassegrain
   + CCD.
(G96) Mt. Lemmon Survey  (N32.442751 W110.788720)  US/Arizona.  Observer E.
   J. Christensen. 1.5-m reflector + 10K CCD.
(H21) Astronomical Research Observatory, Westfield  (N39.483054 W87.968270)
   US/Illinois.  Observer R. Holmes. Measurers S. Foglia, L. Buzzi, T.
   Linder, R. Holmes. 0.76-m f/3.0 astrograph + CCD0.81-m f/4.0 astrograph +
   CCD0.61-m f/4.5 astrograph + CCD0.40-m f/5.32 astrograph + CCD.
(I52) Steward Observatory, Mt. Lemmon Station  (N32.442544 W110.788920)
   US/Arizona.  Observers T. A. Pruyne, B. M. Africano, E. J. Christensen, G.
   A. Farneth, D. C. Fuls, A. R. Gibbs, A. D. Grauer, H. Gröller, J. A.
   Johnson, R. A. Kowalski, S. M. Larson, G. J. Leonard, D. Rankin, R. L.
   Seaman, F. C. Shelly, K. W. Wierzchoś. 1.0-m prime focus + CCD.

Orbital elements:  C9J02Z2
   Perihelion 2023 Sep 17.85529 +/- 0.387 TT = 20:31:37 (JD 2460205.35529)
Epoch 2023 Sep 20.0 TT = JDT 2460207.5   Earth MOID: 0.0666      AutoNEOCP
M   0.93254486 +/- 0.16             (J2000 ecliptic)
n   0.43481168 +/- 0.00147          Peri.  182.18166 +/- 0.41
a   1.72558056 +/- 0.00388          Node   173.58508 +/- 0.0034
e   0.3788905 +/- 0.00129           Incl.    4.79189 +/- 0.019
P   2.27/827.93d           H 25.79  G  0.15   U  8.4
q 1.07177433 +/- 0.000465    Q 2.37938680 +/- 0.00754
From 16 observations 2023 Sept. 19-20 (23.8 hr); mean residual 0".21
Residuals in arcseconds: 
230919 G96  .27+  .12-    230920 033  .28-  .02+    230920 I52  .03-  .09-    
230919 G96  .33-  .02+    230920 033  .17+  .02-    230920 I52  .08+  .16+    
230919 G96  .21-  .05+    230920 033  .09+  .12+    230920 858  .19-  .01-    
230919 G96  .16+  .04+    230920 H21  .24-  .56-    230920 858  .27+  .32+    
230919 I52  .25-  .05-    230920 H21  .02+  .08-    
230919 I52  .40+  .07+    230920 I52  .13+  .24+    

Ephemerides (geocentric):
Date (UTC) HH   RA             Dec           delta  r     elong  mag " sig PA
---- --------  ------------   ------------  ------ ------ -----  --- --------
2023 09 21 01  01 28 20.303   +02 06 55.60  .07432 1.0723 155.4 21.4 5.41 108
2023 09 21 02  01 28 39.585   +02 05 44.30  .07437 1.0723 155.4 21.4 5.81 108
2023 09 21 03  01 28 58.836   +02 04 33.07  .07441 1.0723 155.3 21.4 6.21 107
2023 09 21 04  01 29 18.055   +02 03 21.91  .07446 1.0723 155.3 21.4 6.63 107
2023 09 21 05  01 29 37.242   +02 02 10.82  .07451 1.0723 155.3 21.4 7.06 107
2023 09 21 06  01 29 56.396   +02 00 59.80  .07456 1.0723 155.2 21.4 7.50 107
2023 09 21 07  01 30 15.518   +01 59 48.85  .07461 1.0724 155.2 21.4 7.96 107
2023 09 21 08  01 30 34.608   +01 58 37.97  .07466 1.0724 155.1 21.4 8.42 106
2023 09 21 09  01 30 53.666   +01 57 27.16  .07471 1.0724 155.1 21.4 8.90 106
2023 09 21 10  01 31 12.691   +01 56 16.42  .07476 1.0724 155.1 21.4 9.39 106
2023 09 21 11  01 31 31.683   +01 55 05.76  .07481 1.0724 155.0 21.4 9.89 106
2023 09 21 12  01 31 50.644   +01 53 55.17  .07486 1.0724 155.0 21.4 10.4 106
2023 09 21 13  01 32 09.572   +01 52 44.65  .07491 1.0724 155.0 21.4 10.9 106
2023 09 21 14  01 32 28.467   +01 51 34.21  .07496 1.0725 154.9 21.4 11.5 106
2023 09 21 15  01 32 47.330   +01 50 23.84  .07501 1.0725 154.9 21.4 12.0 106
2023 09 21 16  01 33 06.160   +01 49 13.54  .07506 1.0725 154.8 21.4 12.6 106
2023 09 21 17  01 33 24.957   +01 48 03.32  .07511 1.0725 154.8 21.4 13.1 106
2023 09 21 18  01 33 43.722   +01 46 53.18  .07516 1.0725 154.8 21.4 13.7 105
2023 09 21 19  01 34 02.454   +01 45 43.12  .07521 1.0725 154.7 21.4 14.3 105
2023 09 21 20  01 34 21.153   +01 44 33.13  .07526 1.0725 154.7 21.4 14.9 105
2023 09 21 21  01 34 39.819   +01 43 23.22  .07532 1.0726 154.7 21.4 15.5 105
2023 09 21 22  01 34 58.452   +01 42 13.39  .07537 1.0726 154.6 21.4 16.1 105
2023 09 21 23  01 35 17.053   +01 41 03.64  .07542 1.0726 154.6 21.4 16.8 105
2023 09 22 00  01 35 35.621   +01 39 53.97  .07547 1.0726 154.6 21.4 17.4 105
2023 09 22 01  01 35 54.155   +01 38 44.38  .07553 1.0726 154.5 21.4 18.1 105
2023 09 22 02  01 36 12.657   +01 37 34.87  .07558 1.0726 154.5 21.5 18.7 105
2023 09 22 03  01 36 31.126   +01 36 25.44  .07563 1.0727 154.4 21.5 19.4 105
2023 09 22 04  01 36 49.561   +01 35 16.09  .07568 1.0727 154.4 21.5 20.1 105
2023 09 22 05  01 37 07.964   +01 34 06.82  .07574 1.0727 154.4 21.5 20.8 105
2023 09 22 06  01 37 26.333   +01 32 57.64  .07579 1.0727 154.3 21.5 21.5 105
2023 09 22 07  01 37 44.669   +01 31 48.54  .07584 1.0727 154.3 21.5 22.2 105
2023 09 22 08  01 38 02.972   +01 30 39.52  .07590 1.0728 154.3 21.5 23.0 105
2023 09 22 09  01 38 21.242   +01 29 30.59  .07595 1.0728 154.2 21.5 23.7 105
2023 09 22 10  01 38 39.478   +01 28 21.75  .07601 1.0728 154.2 21.5 24.5 105
2023 09 22 11  01 38 57.682   +01 27 12.98  .07606 1.0728 154.2 21.5 25.2 105
2023 09 22 12  01 39 15.851   +01 26 04.31  .07612 1.0728 154.1 21.5 26.0 105
2023 09 22 13  01 39 33.988   +01 24 55.72  .07617 1.0728 154.1 21.5 26.8 105
2023 09 22 14  01 39 52.091   +01 23 47.21  .07623 1.0729 154.0 21.5 27.6 105
2023 09 22 15  01 40 10.161   +01 22 38.80  .07628 1.0729 154.0 21.5 28.4 105
2023 09 22 16  01 40 28.198   +01 21 30.47  .07634 1.0729 154.0 21.5 29.2 105
2023 09 22 17  01 40 46.201   +01 20 22.22  .07639 1.0729 153.9 21.5 30.0 105
2023 09 22 18  01 41 04.170   +01 19 14.07  .07645 1.0729 153.9 21.5 30.8 105
2023 09 22 19  01 41 22.107   +01 18 06.01  .07651 1.0730 153.9 21.5 31.7 105
2023 09 22 20  01 41 40.009   +01 16 58.03  .07656 1.0730 153.8 21.5 32.5 105
2023 09 22 21  01 41 57.878   +01 15 50.15  .07662 1.0730 153.8 21.5 33.4 105
2023 09 22 22  01 42 15.714   +01 14 42.35  .07668 1.0730 153.8 21.5 34.2 105
2023 09 22 23  01 42 33.516   +01 13 34.65  .07673 1.0730 153.7 21.5 35.1 105
2023 09 23 00  01 42 51.284   +01 12 27.03  .07679 1.0731 153.7 21.5 36.0 105